Simultaneous Nadir Overpasses (SNOs) Predictions

Prediction of SNOs between GOES-16 and NOAA-19 Satellite Orbit:

Table of predicted SNOs for the next 14.0 days since TLE Epoch: 11/25/2023
Index Date Time (GOES-16) GOES-16 Lat,Lon NOAA-19 Lat,Lon Distance(km) Time Diff (sec)
1 11/26/2023 01:47:19 0.05, -75.21 0.46, -73.55 190.20 80
2 11/28/2023 14:09:43 -0.04, -75.31 0.62, -78.24 334.06 80
3 11/29/2023 13:54:55 -0.04, -75.34 -0.06, -75.29 6.35 80
4 11/30/2023 13:42:46 -0.03, -75.37 -0.74, -72.33 346.84 80
5 12/03/2023 02:05:25 0.02, -75.42 -0.36, -77.08 189.83 80
6 12/04/2023 01:50:37 0.02, -75.46 0.32, -74.13 151.34 80
7 12/05/2023 01:38:28 0.02, -75.49 1.00, -71.17 492.70 80
8 12/06/2023 14:12:58 -0.02, -75.59 0.74, -78.81 368.54 80
9 12/07/2023 14:00:50 -0.01, -75.63 0.04, -75.86 26.66 80
10 12/08/2023 13:46:02 -0.01, -75.67 -0.65, -72.91 315.33 80
